Location: *
(32.8140°S, 174.6161°E)
Time: 09:39:51
(UTC+00:00)

Cosmos 2360 Rocket - Pass Details

Date: 10 December 2019
Orbit: 833 x 846 km, 71.0° (Epoch: 27 January)

Event Time Altitude Azimuth Distance (km) Brightness Sun altitude
Exits shadow 16:14:54 12° 313° (NW) 2,283 3.8 -10.0°
Maximum altitude 16:19:42 41° 245° (WSW) 1,206 2.8 -9.2°
Drops below altitude 10° 16:25:02 10° 175° (S) 2,473 5.2 -8.3°
Sets 16:27:39 0° 167° (SSE) 3,413 6.1 -7.8°
